CW2401 Weather Reports


time (UTC)temp
F
wind
direction
speed
knots
gust
knots
rain 1hr
in
rain 24hr
in
rain mn
in
humidity
%
barometer
mb
20260505164445 77 230 1.7 4.3 0.00 0.00 0.00 50 1017.2
20260505164043 77 114 1.7 4.3 0.00 0.00 0.00 50 1017.4
20260505163840 76 177 1.7 4.3 0.00 0.00 0.00 49 1017.5
20260505163640 76 183 1.7 4.3 0.00 0.00 0.00 52 1017.4
20260505163436 76 92 1.7 4.3 0.00 0.00 0.00 52 1017.4
20260505163238 76 113 1.7 4.3 0.00 0.00 0.00 52 1017.4
20260505163037 76 160 1.7 4.3 0.00 0.00 0.00 53 1017.4
20260505162837 76 70 1.7 4.3 0.00 0.00 0.00 52 1017.4
20260505162633 76 50 1.7 4.3 0.00 0.00 0.00 53 1017.4
20260505162436 76 43 1.7 3.5 0.00 0.00 0.00 52 1017.5
20260505162235 76 200 1.7 5.2 0.00 0.00 0.00 53 1017.5
20260505162034 76 9 1.7 5.2 0.00 0.00 0.00 53 1017.5
20260505161834 76 223 1.7 5.2 0.00 0.00 0.00 52 1017.5
20260505161632 76 284 0.9 5.2 0.00 0.00 0.00 53 1017.6
20260505161432 76 344 1.7 5.2 0.00 0.00 0.00 53 1017.5
20260505161233 76 335 1.7 4.3 0.00 0.00 0.00 52 1017.6
20260505161032 76 355 1.7 4.3 0.00 0.00 0.00 52 1017.6
20260505160831 75 0 1.7 3.5 0.00 0.00 0.00 52 1017.6
20260505160231 75 142 1.7 4.3 0.00 0.00 0.00 55 1017.7
20260505153228 75 344 1.7 4.3 0.00 0.00 0.00 55 1017.9
20260505153026 75 134 1.7 4.3 0.00 0.00 0.00 56 1017.9
20260505152824 75 83 1.7 4.3 0.00 0.00 0.00 56 1017.9
20260505152422 74 151 1.7 3.5 0.00 0.00 0.00 55 1018.0
20260505152221 74 201 0.9 3.5 0.00 0.00 0.00 56 1017.9
20260505152021 74 131 0.9 3.5 0.00 0.00 0.00 57 1017.9
20260505151618 74 167 0.9 3.5 0.00 0.00 0.00 55 1017.9
20260505151420 74 145 0.9 3.5 0.00 0.00 0.00 56 1017.9
20260505151220 74 149 0.9 2.6 0.00 0.00 0.00 57 1017.9
20260505150818 74 76 0.9 3.5 0.00 0.00 0.00 58 1017.9
20260505150620 74 49 0.9 3.5 0.00 0.00 0.00 56 1017.9
20260505150417 74 204 0.9 3.5 0.00 0.00 0.00 56 1017.9
20260505150217 74 119 1.7 5.2 0.00 0.00 0.00 58 1017.9
20260505140549 73 62 0.9 3.5 0.00 0.00 0.00 63 1017.7
20260505140147 72 131 0.9 2.6 0.00 0.00 0.00 63 1017.8
20260505124930 59 49 0.9 1.7 0.00 0.00 0.00 86 1018.0
20260505124731 58 41 0.0 1.7 0.00 0.00 0.00 86 1018.0
20260505124528 58 289 0.0 1.7 0.00 0.00 0.00 86 1017.9
20260505123927 57 42 0.0 1.7 0.00 0.00 0.00 88 1018.0
20260505123727 57 42 0.0 1.7 0.00 0.00 0.00 88 1018.0
20260505123527 57 142 0.0 2.6 0.00 0.00 0.00 88 1018.0
20260505123324 56 142 0.0 2.6 0.00 0.00 0.00 88 1018.1
20260505123124 56 142 0.0 2.6 0.00 0.00 0.00 89 1018.1
20260505122926 56 142 0.0 2.6 0.00 0.00 0.00 89 1018.1
20260505122725 56 40 0.0 2.6 0.00 0.00 0.00 89 1018.0
20260505122524 56 38 0.0 1.7 0.00 0.00 0.00 89 1018.0
20260505122119 55 91 0.0 1.7 0.00 0.00 0.00 90 1018.0
20260505121918 55 91 0.0 1.7 0.00 0.00 0.00 90 1018.0
20260505121517 54 91 0.0 1.7 0.00 0.00 0.00 90 1018.1
20260505121117 54 91 0.0 1.7 0.00 0.00 0.00 90 1018.1
20260505120915 53 91 0.0 1.7 0.00 0.00 0.00 90 1018.1
20260505120714 53 90 0.0 1.7 0.00 0.00 0.00 91 1018.0
20260505120314 53 71 0.0 1.7 0.00 0.00 0.00 90 1018.1
20260505115914 53 72 0.0 1.7 0.00 0.00 0.00 90 1018.0
20260505115714 53 71 0.0 0.9 0.00 0.00 0.00 90 1018.0
20260505115311 52 71 0.0 0.9 0.00 0.00 0.00 90 1017.9
20260505115110 52 71 0.0 0.9 0.00 0.00 0.00 90 1017.8
20260505114907 52 71 0.0 0.9 0.00 0.00 0.00 90 1017.8
20260505114708 52 71 0.0 0.0 0.00 0.00 0.00 90 1017.7
20260505114504 52 71 0.0 0.0 0.00 0.00 0.00 90 1017.7
20260505114102 52 71 0.0 0.0 0.00 0.00 0.00 90 1017.8
20260505113904 52 71 0.0 0.0 0.00 0.00 0.00 90 1017.7
20260505113703 52 71 0.0 0.0 0.00 0.00 0.00 90 1017.8
20260505113504 52 71 0.0 0.0 0.00 0.00 0.00 90 1017.8
20260505113303 51 71 0.0 0.0 0.00 0.00 0.00 90 1017.8
20260505113102 51 71 0.0 0.0 0.00 0.00 0.00 90 1017.8
20260505112900 51 71 0.0 0.0 0.00 0.00 0.00 90 1017.8
20260505112659 51 71 0.0 0.0 0.00 0.00 0.00 90 1017.8
20260505112459 51 71 0.0 0.0 0.00 0.00 0.00 90 1017.8
20260505112259 51 71 0.0 0.0 0.00 0.00 0.00 89 1017.8
20260505112100 51 71 0.0 0.0 0.00 0.00 0.00 89 1017.8
20260505111656 51 71 0.0 0.0 0.00 0.00 0.00 89 1017.7
20260505111254 51 71 0.0 0.0 0.00 0.00 0.00 89 1017.7
20260505111057 51 71 0.0 0.0 0.00 0.00 0.00 89 1017.7
20260505110450 51 71 0.0 0.0 0.00 0.00 0.00 89 1017.8
20260505110246 51 71 0.0 0.0 0.00 0.00 0.00 89 1017.8
20260505102031 52 71 0.0 0.0 0.00 0.00 0.00 88 1017.1
20260505101826 52 71 0.0 0.0 0.00 0.00 0.00 88 1017.1
20260505101625 52 71 0.0 0.0 0.00 0.00 0.00 88 1017.2
20260505101426 52 71 0.0 0.0 0.00 0.00 0.00 88 1017.1
20260505101225 52 71 0.0 0.0 0.00 0.00 0.00 88 1017.1
20260505101023 52 71 0.0 0.0 0.00 0.00 0.00 88 1017.1
20260505100823 52 71 0.0 0.0 0.00 0.00 0.00 88 1017.1
20260505100624 52 71 0.0 0.0 0.00 0.00 0.00 88 1017.0
20260505100422 52 71 0.0 0.0 0.00 0.00 0.00 88 1017.0
20260505100223 52 71 0.0 0.0 0.00 0.00 0.00 88 1017.0
20260505095823 52 71 0.0 0.0 0.00 0.00 0.00 88 1017.0
20260505095623 52 71 0.0 0.0 0.00 0.00 0.00 88 1016.9
20260505095024 53 71 0.0 0.0 0.00 0.00 0.00 87 1016.8
20260505094823 53 71 0.0 0.0 0.00 0.00 0.00 87 1016.9
20260505094622 53 71 0.0 0.0 0.00 0.00 0.00 87 1016.9
20260505094422 53 71 0.0 0.0 0.00 0.00 0.00 87 1016.9
20260505094223 53 71 0.0 0.0 0.00 0.00 0.00 87 1016.8
20260505094023 53 71 0.0 0.0 0.00 0.00 0.00 87 1016.8
20260505093823 53 71 0.0 0.0 0.00 0.00 0.00 87 1016.8
20260505093624 53 71 0.0 0.0 0.00 0.00 0.00 87 1016.8
20260505093424 53 71 0.0 0.0 0.00 0.00 0.00 87 1016.7
20260505093225 53 71 0.0 0.0 0.00 0.00 0.00 87 1016.7
20260505093023 53 71 0.0 0.0 0.00 0.00 0.00 87 1016.7
20260505092824 53 71 0.0 0.0 0.00 0.00 0.00 87 1016.8
20260505092623 53 71 0.0 0.0 0.00 0.00 0.00 87 1016.7
20260505092423 53 71 0.0 0.0 0.00 0.00 0.00 86 1016.7
20260505092223 53 71 0.0 0.0 0.00 0.00 0.00 86 1016.7
20260505092022 53 71 0.0 0.0 0.00 0.00 0.00 86 1016.7
20260505091823 53 71 0.0 0.0 0.00 0.00 0.00 86 1016.6
20260505091623 54 71 0.0 0.0 0.00 0.00 0.00 86 1016.7
20260505091423 54 71 0.0 0.0 0.00 0.00 0.00 86 1016.6
20260505091023 54 71 0.0 0.0 0.00 0.00 0.00 86 1016.6
20260505090822 54 71 0.0 0.0 0.00 0.00 0.00 86 1016.5
20260505090624 54 71 0.0 0.0 0.00 0.00 0.00 85 1016.6
20260505090424 54 71 0.0 0.0 0.00 0.00 0.00 85 1016.6
20260505090222 54 71 0.0 0.0 0.00 0.00 0.00 85 1016.6
20260505090022 54 71 0.0 0.0 0.00 0.00 0.00 85 1016.6
20260505085824 54 71 0.0 0.0 0.00 0.00 0.00 85 1016.6
20260505085622 55 71 0.0 0.0 0.00 0.00 0.00 85 1016.6
20260505085424 55 71 0.0 0.0 0.00 0.00 0.00 85 1016.6
20260505085224 55 71 0.0 0.0 0.00 0.00 0.00 85 1016.6
20260505085024 55 71 0.0 0.0 0.00 0.00 0.00 85 1016.6
20260505084824 55 71 0.0 0.0 0.00 0.00 0.00 84 1016.5
20260505084224 55 71 0.0 0.0 0.00 0.00 0.00 84 1016.5
20260505084022 55 71 0.0 0.0 0.00 0.00 0.00 84 1016.5
20260505083823 55 71 0.0 0.0 0.00 0.00 0.00 84 1016.5
20260505083424 55 71 0.0 0.0 0.00 0.00 0.00 84 1016.5
20260505083222 56 71 0.0 0.0 0.00 0.00 0.00 83 1016.5
20260505083023 56 71 0.0 0.0 0.00 0.00 0.00 83 1016.5
20260505082623 56 71 0.0 0.0 0.00 0.00 0.00 83 1016.4
20260505082423 56 71 0.0 0.0 0.00 0.00 0.00 83 1016.5
20260505082222 56 71 0.0 0.0 0.00 0.00 0.00 82 1016.5
20260505082023 56 71 0.0 0.0 0.00 0.00 0.00 82 1016.4
20260505081623 56 71 0.0 0.0 0.00 0.00 0.00 82 1016.4
20260505081424 56 71 0.0 0.0 0.00 0.00 0.00 82 1016.4
20260505081223 57 71 0.0 0.0 0.00 0.00 0.00 81 1016.4
20260505081022 57 71 0.0 0.0 0.00 0.00 0.00 81 1016.3
20260505080824 57 71 0.0 0.0 0.00 0.00 0.00 81 1016.3
20260505080623 57 71 0.0 0.0 0.00 0.00 0.00 81 1016.3
20260505080222 57 71 0.0 0.0 0.00 0.00 0.00 81 1016.4
20260505080024 57 71 0.0 0.0 0.00 0.00 0.00 81 1016.4
20260505075823 57 71 0.0 0.0 0.00 0.00 0.00 81 1016.4
20260505075623 57 71 0.0 0.0 0.00 0.00 0.00 81 1016.4
20260505075423 58 71 0.0 0.0 0.00 0.00 0.00 80 1016.4
20260505075222 58 71 0.0 0.0 0.00 0.00 0.00 80 1016.4
20260505074624 58 71 0.0 0.0 0.00 0.00 0.00 79 1016.3
20260505074424 58 71 0.0 0.0 0.00 0.00 0.00 79 1016.3
20260505074223 58 71 0.0 0.0 0.00 0.00 0.00 79 1016.3
20260505074024 58 71 0.0 0.0 0.00 0.00 0.00 79 1016.2
20260505073824 58 71 0.0 0.0 0.00 0.00 0.00 79 1016.2
20260505073624 58 71 0.0 0.0 0.00 0.00 0.00 78 1016.2
20260505073424 58 71 0.0 0.0 0.00 0.00 0.00 79 1016.2
20260505073224 58 71 0.0 0.0 0.00 0.00 0.00 78 1016.2
20260505073022 58 71 0.0 0.9 0.00 0.00 0.00 78 1016.2
20260505072822 59 71 0.0 0.9 0.00 0.00 0.00 78 1016.2
20260505072624 59 71 0.0 0.9 0.00 0.00 0.00 78 1016.2
20260505072222 59 71 0.0 0.9 0.00 0.00 0.00 78 1016.2
20260505071822 59 71 0.0 0.9 0.00 0.00 0.00 77 1016.1
20260505071425 59 71 0.0 0.9 0.00 0.00 0.00 77 1015.9
20260505071222 60 71 0.0 0.9 0.00 0.00 0.00 76 1015.9
20260505071022 60 71 0.0 0.9 0.00 0.00 0.00 77 1015.9
20260505070826 60 71 0.0 0.9 0.00 0.00 0.00 76 1015.9
20260505070621 60 71 0.0 0.9 0.00 0.00 0.00 76 1016.1
20260505070419 60 71 0.0 0.9 0.00 0.00 0.00 76 1016.1
20260505070219 60 71 0.0 0.9 0.00 0.00 0.00 76 1015.9
20260505065813 60 71 0.0 0.0 0.00 0.00 0.00 75 1016.1
20260505065611 60 71 0.0 0.0 0.00 0.00 0.00 75 1016.1
20260505065410 61 71 0.0 0.9 0.00 0.00 0.00 75 1015.9
20260505065208 61 71 0.0 0.9 0.00 0.00 0.00 74 1015.9
20260505065005 61 71 0.0 0.9 0.00 0.00 0.00 75 1015.9
20260505064800 61 71 0.0 0.9 0.00 0.00 0.00 75 1015.9
20260505064603 61 71 0.0 0.9 0.00 0.00 0.00 74 1015.9
20260505064400 61 71 0.0 0.9 0.00 0.00 0.00 74 1015.9
20260505064159 61 71 0.0 0.9 0.00 0.00 0.00 74 1016.1
20260505063956 61 71 0.0 0.9 0.00 0.00 0.00 74 1015.9
20260505063756 61 71 0.0 0.0 0.00 0.00 0.00 74 1015.9
20260505063554 61 71 0.0 0.0 0.00 0.00 0.00 74 1015.9
20260505063354 61 71 0.0 0.9 0.00 0.00 0.00 74 1015.9
20260505063150 61 71 0.0 2.6 0.00 0.00 0.00 74 1015.9
20260505062144 62 72 0.0 3.5 0.00 0.00 0.00 74 1015.9
20260505061745 62 72 0.0 3.5 0.00 0.00 0.00 72 1015.9
20260505061543 62 71 0.0 3.5 0.00 0.00 0.00 72 1015.9
20260505061344 62 69 0.0 1.7 0.00 0.00 0.00 72 1015.9
20260505061143 62 69 0.0 1.7 0.00 0.00 0.00 72 1015.9
20260505060941 62 69 0.0 2.6 0.00 0.00 0.00 72 1015.9
20260505060740 62 69 0.0 2.6 0.00 0.00 0.00 72 1015.9
20260505060337 62 69 0.0 2.6 0.00 0.00 0.00 72 1015.9
20260505060136 62 69 0.9 2.6 0.00 0.00 0.00 72 1016.1
20260505055936 62 69 0.9 2.6 0.00 0.00 0.00 72 1015.9
20260505055737 62 69 0.0 2.6 0.00 0.00 0.00 72 1015.9
20260505055536 62 73 0.0 2.6 0.00 0.00 0.00 72 1015.9
20260505055332 62 74 0.0 2.6 0.00 0.00 0.00 72 1015.9
20260505055133 62 73 0.0 3.5 0.00 0.00 0.00 71 1016.1
20260505054930 62 74 0.9 3.5 0.00 0.00 0.00 72 1015.9
20260505054728 62 74 0.9 3.5 0.00 0.00 0.00 71 1015.9
20260505054528 62 73 0.9 3.5 0.00 0.00 0.00 71 1015.9
20260505053929 62 74 0.0 2.6 0.00 0.00 0.00 71 1015.8
20260505053727 62 76 0.0 1.7 0.00 0.00 0.00 71 1015.8
20260505053326 62 78 0.9 3.5 0.00 0.00 0.00 71 1015.8
20260505052922 62 78 0.9 3.5 0.00 0.00 0.00 71 1015.8
20260505052723 62 78 0.9 4.3 0.00 0.00 0.00 71 1015.8
20260505052522 62 78 0.9 4.3 0.00 0.00 0.00 71 1015.9
20260505052322 62 142 0.0 4.3 0.00 0.00 0.00 71 1015.9
20260505051921 62 78 0.0 4.3 0.00 0.00 0.00 71 1015.9
20260505051720 62 90 0.9 3.5 0.00 0.00 0.00 71 1016.1
20260505051522 62 90 0.9 3.5 0.00 0.00 0.00 71 1016.1
20260505051321 62 90 0.9 3.5 0.00 0.00 0.00 71 1016.1
20260505050917 62 92 0.9 3.5 0.00 0.00 0.00 72 1016.1
20260505050716 62 85 0.9 3.5 0.00 0.00 0.00 72 1015.9
20260505050514 62 111 0.9 3.5 0.00 0.00 0.00 72 1015.9
20260505050314 62 119 0.9 3.5 0.00 0.00 0.00 72 1015.9
20260505050110 62 119 0.9 3.5 0.00 0.00 0.00 72 1016.1
20260505041455 62 88 0.0 2.6 0.00 0.00 0.00 68 1016.1
20260505041254 62 88 0.0 2.6 0.00 0.00 0.00 68 1016.1
20260505041054 63 88 0.0 2.6 0.00 0.00 0.00 69 1016.1
20260505040855 63 94 0.0 2.6 0.00 0.00 0.00 68 1015.9
20260505040653 63 94 0.0 2.6 0.00 0.00 0.00 68 1016.1
20260505040450 63 93 0.0 2.6 0.00 0.00 0.00 68 1015.9
20260505040047 63 183 0.0 1.7 0.00 0.00 0.00 67 1016.1
20260505035844 63 183 0.0 1.7 0.00 0.00 0.00 68 1015.9
20260505035645 63 183 0.0 1.7 0.00 0.00 0.00 67 1016.1
20260505035444 63 183 0.0 1.7 0.00 0.00 0.00 67 1016.1
20260505035244 63 183 0.9 2.6 0.00 0.00 0.00 67 1016.1
20260505035042 63 228 0.9 2.6 0.00 0.00 0.00 67 1016.1
20260505034840 63 228 0.9 2.6 0.00 0.00 0.00 67 1016.1
20260505034641 63 228 0.9 2.6 0.00 0.00 0.00 67 1016.1
20260505034440 62 228 0.9 2.6 0.00 0.00 0.00 66 1016.1
20260505034239 62 321 0.9 2.6 0.00 0.00 0.00 66 1015.9
20260505034039 62 74 0.9 2.6 0.00 0.00 0.00 65 1016.1
20260505033840 62 74 0.9 2.6 0.00 0.00 0.00 66 1016.1
20260505033238 62 32 0.0 2.6 0.00 0.00 0.00 65 1016.1
20260505033037 62 243 0.0 0.0 0.00 0.00 0.00 65 1016.2
20260505032639 62 242 0.0 0.0 0.00 0.00 0.00 66 1016.1
20260505032438 62 242 0.0 0.0 0.00 0.00 0.00 65 1016.1
20260505032239 62 242 0.0 0.0 0.00 0.00 0.00 66 1016.1
20260505032037 62 242 0.0 0.0 0.00 0.00 0.00 64 1016.1
20260505031838 62 242 0.0 2.6 0.00 0.00 0.00 65 1016.1
20260505031637 62 242 0.0 2.6 0.00 0.00 0.00 65 1016.1
20260505031435 62 234 0.0 2.6 0.00 0.00 0.00 65 1016.1
20260505031235 62 234 0.0 2.6 0.00 0.00 0.00 64 1016.1
20260505031031 62 234 0.0 2.6 0.00 0.00 0.00 65 1016.1
20260505030829 62 112 0.0 0.9 0.00 0.00 0.00 65 1016.1
20260505030632 62 112 0.0 1.7 0.00 0.00 0.00 65 1016.1
20260505030430 62 112 0.0 1.7 0.00 0.00 0.00 65 1016.1
20260505030031 62 112 0.0 1.7 0.00 0.00 0.00 66 1016.1
20260505025829 62 112 0.0 1.7 0.00 0.00 0.00 66 1016.1
20260505025629 62 112 0.0 0.0 0.00 0.00 0.00 65 1016.1
20260505025429 62 112 0.0 0.9 0.00 0.00 0.00 65 1015.9
20260505025227 62 112 0.0 1.7 0.00 0.00 0.00 66 1015.9
20260505025025 62 112 0.0 1.7 0.00 0.00 0.00 66 1015.9
20260505024623 62 112 0.9 2.6 0.00 0.00 0.00 66 1015.9
20260505024422 62 112 0.0 2.6 0.00 0.00 0.00 67 1015.9
20260505024221 62 117 0.0 2.6 0.00 0.00 0.00 67 1015.8
20260505024021 62 140 0.0 2.6 0.00 0.00 0.00 65 1015.8
20260505023821 62 140 0.0 2.6 0.00 0.00 0.00 66 1015.8
20260505023620 62 64 0.0 0.0 0.00 0.00 0.00 66 1015.8
20260505023419 62 64 0.0 0.0 0.00 0.00 0.00 65 1015.8
20260505023219 62 64 0.0 0.0 0.00 0.00 0.00 65 1015.7
20260505023018 62 30 0.0 0.0 0.00 0.00 0.00 66 1015.8
20260505022818 62 29 0.0 0.0 0.00 0.00 0.00 66 1015.8
20260505022619 62 29 0.0 0.9 0.00 0.00 0.00 66 1015.8
20260505022420 62 29 0.0 0.9 0.00 0.00 0.00 66 1015.7
20260505022218 62 29 0.0 0.9 0.00 0.00 0.00 66 1015.7
20260505021816 62 29 0.0 0.9 0.00 0.00 0.00 66 1015.6
20260505021613 62 29 0.0 0.9 0.00 0.00 0.00 66 1015.7
20260505021412 62 29 0.0 1.7 0.00 0.00 0.00 66 1015.6
20260505021212 62 29 0.0 1.7 0.00 0.00 0.00 66 1015.6
20260505021011 62 29 0.0 1.7 0.00 0.00 0.00 66 1015.6
20260505020810 62 29 0.0 1.7 0.00 0.00 0.00 66 1015.6
20260505020610 62 29 0.0 1.7 0.00 0.00 0.00 66 1015.6
20260505020408 62 28 0.0 0.9 0.00 0.00 0.00 66 1015.6
20260505020206 62 28 0.0 0.9 0.00 0.00 0.00 65 1015.6
20260505020007 62 28 0.0 0.9 0.00 0.00 0.00 66 1015.6
20260505015606 62 28 0.0 0.9 0.00 0.00 0.00 65 1015.6
20260505015406 62 28 0.0 0.9 0.00 0.00 0.00 64 1015.6
20260505015205 62 28 0.0 0.9 0.00 0.00 0.00 65 1015.6
20260505014800 62 28 0.0 0.9 0.00 0.00 0.00 64 1015.6
20260505014600 62 28 0.0 0.9 0.00 0.00 0.00 64 1015.5
20260505014156 62 28 0.0 0.9 0.00 0.00 0.00 64 1015.4
20260505013954 62 28 0.0 0.9 0.00 0.00 0.00 63 1015.4
20260505013550 62 28 0.0 0.9 0.00 0.00 0.00 62 1015.4
20260505013351 62 28 0.0 0.9 0.00 0.00 0.00 62 1015.3
20260505012746 63 28 0.0 0.9 0.00 0.00 0.00 62 1015.2
20260505012548 63 28 0.0 0.9 0.00 0.00 0.00 61 1015.2
20260505012347 63 28 0.0 0.9 0.00 0.00 0.00 61 1015.2
20260505011946 64 28 0.0 0.0 0.00 0.00 0.00 60 1015.1
20260505011745 64 28 0.0 0.0 0.00 0.00 0.00 60 1015.1
20260505011542 64 28 0.0 0.0 0.00 0.00 0.00 59 1015.1
20260505011341 64 28 0.0 0.0 0.00 0.00 0.00 59 1015.1
20260505010736 65 28 0.0 0.0 0.00 0.00 0.00 59 1015.1
20260505010337 65 28 0.0 0.0 0.00 0.00 0.00 58 1015.1
20260505010136 65 28 0.0 0.0 0.00 0.00 0.00 57 1015.0
20260505005935 65 28 0.0 0.0 0.00 0.00 0.00 57 1014.9
20260505005733 66 28 0.0 0.0 0.00 0.00 0.00 58 1014.9
20260505005534 66 28 0.0 0.0 0.00 0.00 0.00 56 1014.9
20260505005330 66 28 0.0 0.0 0.00 0.00 0.00 56 1014.8
20260505005130 66 28 0.0 0.0 0.00 0.00 0.00 56 1014.8
20260505004926 67 28 0.0 0.0 0.00 0.00 0.00 56 1014.7
20260505004524 67 28 0.0 0.0 0.00 0.00 0.00 55 1014.7
20260505004324 67 28 0.0 0.0 0.00 0.00 0.00 54 1014.7
20260505004125 67 28 0.0 0.0 0.00 0.00 0.00 54 1014.6
20260505003925 68 28 0.0 0.0 0.00 0.00 0.00 53 1014.6
20260505003725 68 28 0.0 0.0 0.00 0.00 0.00 53 1014.6
20260505003523 68 28 0.0 0.0 0.00 0.00 0.00 52 1014.5
20260505003322 68 28 0.0 0.0 0.00 0.00 0.00 52 1014.5
20260505003121 69 28 0.0 0.0 0.00 0.00 0.00 52 1014.5
20260505002718 69 28 0.0 0.0 0.00 0.00 0.00 52 1014.4
20260505002517 69 28 0.0 0.0 0.00 0.00 0.00 51 1014.4
20260505002315 69 28 0.0 0.0 0.00 0.00 0.00 50 1014.4
20260505001915 70 28 0.0 0.0 0.00 0.00 0.00 51 1014.3
20260505001713 70 28 0.0 0.0 0.00 0.00 0.00 51 1014.2
20260505001510 70 28 0.0 0.0 0.00 0.00 0.00 51 1014.3
20260505001311 70 28 0.0 0.0 0.00 0.00 0.00 50 1014.3
20260505001108 71 28 0.0 0.0 0.00 0.00 0.00 49 1014.2
20260505000909 71 28 0.0 0.0 0.00 0.00 0.00 48 1014.3
20260505000709 71 28 0.0 0.0 0.00 0.00 0.00 49 1014.3
20260505000508 71 28 0.0 0.0 0.00 0.00 0.00 49 1014.3
20260505000109 71 28 0.0 0.0 0.00 0.00 0.00 48 1014.3
20260504235909 72 28 0.0 0.0 0.00 0.00 0.00 48 1014.3
20260504235705 72 28 0.0 0.0 0.00 0.00 0.00 48 1014.2
20260504235503 72 28 0.0 0.0 0.00 0.00 0.00 48 1014.2
20260504235304 72 28 0.0 0.0 0.00 0.00 0.00 48 1014.2
20260504235104 73 28 0.0 0.0 0.00 0.00 0.00 49 1014.2
20260504234700 73 28 0.0 0.0 0.00 0.00 0.00 48 1014.2
20260504234458 73 28 0.0 0.0 0.00 0.00 0.00 48 1014.2
20260504234259 73 28 0.0 0.9 0.00 0.00 0.00 47 1014.2
20260504234055 73 28 0.0 0.9 0.00 0.00 0.00 47 1014.2
20260504233654 73 28 0.0 0.9 0.00 0.00 0.00 47 1014.1
20260504233454 74 28 0.0 0.9 0.00 0.00 0.00 48 1014.1
20260504233252 74 28 0.0 1.7 0.00 0.00 0.00 47 1014.1
20260504232647 74 22 0.0 1.7 0.00 0.00 0.00 48 1014.1
20260504232446 74 22 0.0 1.7 0.00 0.00 0.00 49 1014.1
20260504232043 74 22 0.0 1.7 0.00 0.00 0.00 46 1014.1
20260504231842 75 22 0.0 1.7 0.00 0.00 0.00 45 1014.0
20260504231642 75 13 0.0 0.9 0.00 0.00 0.00 46 1014.0
20260504231441 75 13 0.0 1.7 0.00 0.00 0.00 43 1014.1
20260504231241 75 13 0.0 1.7 0.00 0.00 0.00 44 1014.0
20260504230836 75 13 0.9 1.7 0.00 0.00 0.00 44 1014.0
20260504230634 75 13 0.9 1.7 0.00 0.00 0.00 44 1014.0
20260504230436 75 13 0.9 1.7 0.00 0.00 0.00 45 1014.0
20260504230232 75 101 0.9 3.5 0.00 0.00 0.00 44 1014.0
20260504230033 75 47 0.9 3.5 0.00 0.00 0.00 44 1014.0
20260504225832 75 46 0.9 3.5 0.00 0.00 0.00 44 1014.0
20260504225633 76 46 0.0 3.5 0.00 0.00 0.00 45 1014.0
20260504225433 76 44 0.0 3.5 0.00 0.00 0.00 43 1014.1
20260504225032 76 70 0.0 2.6 0.00 0.00 0.00 43 1014.0
20260504224832 76 70 0.9 2.6 0.00 0.00 0.00 44 1014.0
20260504224632 76 70 0.9 2.6 0.00 0.00 0.00 45 1014.0
20260504224432 76 69 0.9 2.6 0.00 0.00 0.00 43 1014.0
20260504224231 76 69 0.9 2.6 0.00 0.00 0.00 42 1013.9
20260504224034 76 48 0.9 2.6 0.00 0.00 0.00 43 1014.0
20260504223831 76 46 0.9 2.6 0.00 0.00 0.00 43 1014.0
20260504223633 76 43 0.9 2.6 0.00 0.00 0.00 43 1014.0
20260504223432 76 62 0.9 2.6 0.00 0.00 0.00 42 1014.0
20260504223233 76 62 0.9 2.6 0.00 0.00 0.00 44 1014.0
20260504223032 77 61 0.9 2.6 0.00 0.00 0.00 40 1014.1
20260504222632 77 20 0.9 5.2 0.00 0.00 0.00 41 1014.1
20260504222230 77 20 0.9 5.2 0.00 0.00 0.00 40 1014.1
20260504222031 77 20 0.9 5.2 0.00 0.00 0.00 40 1014.1
20260504221830 77 316 0.9 5.2 0.00 0.00 0.00 40 1014.1
20260504221628 77 355 0.9 4.3 0.00 0.00 0.00 41 1014.1
20260504221428 77 304 0.9 2.6 0.00 0.00 0.00 39 1014.1
20260504221228 77 107 0.9 2.6 0.00 0.00 0.00 38 1014.0
20260504221028 77 107 0.9 2.6 0.00 0.00 0.00 39 1014.1
20260504220828 78 55 0.0 2.6 0.00 0.00 0.00 39 1014.1
20260504220630 78 18 0.9 2.6 0.00 0.00 0.00 40 1014.1
20260504220425 78 18 0.9 2.6 0.00 0.00 0.00 39 1014.1
20260504220226 78 18 0.9 2.6 0.00 0.00 0.00 39 1014.1
20260504215825 78 10 0.9 2.6 0.00 0.00 0.00 39 1014.1
20260504215623 78 5 0.9 2.6 0.00 0.00 0.00 38 1014.1
20260504215218 78 63 0.9 2.6 0.00 0.00 0.00 39 1014.1
20260504215019 78 350 0.9 2.6 0.00 0.00 0.00 39 1014.1
20260504214818 78 350 0.9 2.6 0.00 0.00 0.00 38 1014.1
20260504214614 78 343 0.9 3.5 0.00 0.00 0.00 39 1014.1
20260504214215 78 148 0.9 3.5 0.00 0.00 0.00 37 1014.1
20260504213814 78 163 0.9 3.5 0.00 0.00 0.00 38 1014.0
20260504213615 78 0 0.9 2.6 0.00 0.00 0.00 39 1014.1
20260504213216 78 345 0.9 4.3 0.00 0.00 0.00 42 1014.1
20260504213015 78 109 0.9 4.3 0.00 0.00 0.00 41 1014.1
20260504212615 78 111 0.9 4.3 0.00 0.00 0.00 39 1014.1
20260504212415 78 256 0.0 4.3 0.00 0.00 0.00 39 1014.0
20260504212215 78 197 0.9 1.7 0.00 0.00 0.00 40 1014.0
20260504211814 78 196 0.9 3.5 0.00 0.00 0.00 38 1014.1
20260504211613 78 196 0.9 3.5 0.00 0.00 0.00 37 1014.1
20260504211413 78 196 0.9 3.5 0.00 0.00 0.00 37 1014.0
20260504211210 78 195 0.9 3.5 0.00 0.00 0.00 38 1014.1
20260504211008 78 222 0.9 2.6 0.00 0.00 0.00 39 1014.1
20260504210610 78 161 0.9 2.6 0.00 0.00 0.00 38 1014.2
20260504210406 78 90 0.9 5.2 0.00 0.00 0.00 37 1014.1
20260504210205 78 90 0.9 5.2 0.00 0.00 0.00 37 1014.1
20260504205604 78 217 0.9 5.2 0.00 0.00 0.00 38 1014.1
20260504205407 78 150 0.9 2.6 0.00 0.00 0.00 38 1014.1
20260504205205 78 150 0.9 4.3 0.00 0.00 0.00 38 1014.2
20260504205004 78 22 1.7 4.3 0.00 0.00 0.00 38 1014.1
20260504204805 78 19 1.7 5.2 0.00 0.00 0.00 37 1014.2
20260504204602 78 19 1.7 5.2 0.00 0.00 0.00 38 1014.2
20260504204401 78 311 1.7 5.2 0.00 0.00 0.00 37 1014.3
20260504204159 78 145 0.9 5.2 0.00 0.00 0.00 38 1014.2
20260504204000 78 101 0.9 5.2 0.00 0.00 0.00 39 1014.3
20260504203758 78 26 0.9 5.2 0.00 0.00 0.00 40 1014.4
20260504203559 78 150 0.9 5.2 0.00 0.00 0.00 39 1014.3
20260504203359 78 186 0.9 5.2 0.00 0.00 0.00 38 1014.3
20260504202757 77 62 0.9 3.5 0.00 0.00 0.00 38 1014.4
20260504202556 77 82 0.9 3.5 0.00 0.00 0.00 38 1014.4
20260504202358 77 82 0.9 3.5 0.00 0.00 0.00 39 1014.4
20260504202154 77 77 0.9 4.3 0.00 0.00 0.00 40 1014.4
20260504201955 77 105 0.9 4.3 0.00 0.00 0.00 39 1014.6
20260504201555 77 105 0.9 4.3 0.00 0.00 0.00 37 1014.6
20260504201354 77 100 0.9 4.3 0.00 0.00 0.00 38 1014.6
20260504200953 77 178 0.9 7.0 0.00 0.00 0.00 36 1014.5
20260504200751 77 178 1.7 7.0 0.00 0.00 0.00 36 1014.6
20260504200549 77 173 1.7 7.0 0.00 0.00 0.00 36 1014.6
20260504200351 77 173 1.7 7.0 0.00 0.00 0.00 38 1014.6
20260504200151 77 157 1.7 7.0 0.00 0.00 0.00 36 1014.5
20260504195747 77 0 0.9 5.2 0.00 0.00 0.00 38 1014.6
20260504195547 77 5 0.9 2.6 0.00 0.00 0.00 38 1014.6
20260504195344 77 0 0.9 2.6 0.00 0.00 0.00 36 1014.6
20260504195144 77 69 0.9 3.5 0.00 0.00 0.00 35 1014.6
20260504194944 77 69 0.9 4.3 0.00 0.00 0.00 36 1014.7
20260504194543 77 44 1.7 7.0 0.00 0.00 0.00 38 1014.9
20260504194341 77 44 1.7 7.0 0.00 0.00 0.00 39 1014.9
20260504194141 77 355 1.7 7.0 0.00 0.00 0.00 38 1014.9
20260504193940 77 268 1.7 7.0 0.00 0.00 0.00 36 1015.0
20260504193541 77 309 1.7 5.2 0.00 0.00 0.00 36 1015.0
20260504193340 77 190 1.7 5.2 0.00 0.00 0.00 36 1015.0
20260504192941 77 292 1.7 5.2 0.00 0.00 0.00 37 1015.0
20260504192740 77 38 1.7 5.2 0.00 0.00 0.00 36 1015.1
20260504192539 77 160 1.7 4.3 0.00 0.00 0.00 38 1015.1
20260504192338 77 80 0.9 4.3 0.00 0.00 0.00 38 1015.1
20260504192139 77 286 0.9 4.3 0.00 0.00 0.00 36 1015.2
20260504191939 77 111 0.9 3.5 0.00 0.00 0.00 37 1015.1
20260504191739 76 57 0.9 3.5 0.00 0.00 0.00 36 1015.1
20260504191537 76 80 0.9 3.5 0.00 0.00 0.00 37 1015.2
20260504191335 76 80 0.9 3.5 0.00 0.00 0.00 37 1015.2
20260504191134 76 13 0.9 3.5 0.00 0.00 0.00 37 1015.3
20260504190934 76 5 0.9 4.3 0.00 0.00 0.00 36 1015.4
20260504190733 76 311 1.7 4.3 0.00 0.00 0.00 36 1015.4
20260504190534 76 306 1.7 4.3 0.00 0.00 0.00 36 1015.4
20260504190136 76 309 1.7 4.3 0.00 0.00 0.00 38 1015.4
20260504185934 76 184 1.7 4.3 0.00 0.00 0.00 37 1015.4
20260504185734 76 311 1.7 3.5 0.00 0.00 0.00 36 1015.3
20260504185535 76 113 1.7 3.5 0.00 0.00 0.00 35 1015.3
20260504185134 76 293 1.7 4.3 0.00 0.00 0.00 35 1015.4
20260504184732 76 270 1.7 5.2 0.00 0.00 0.00 36 1015.4
20260504184532 76 305 1.7 5.2 0.00 0.00 0.00 37 1015.5
20260504184332 76 355 1.7 5.2 0.00 0.00 0.00 37 1015.4
20260504184131 76 299 0.9 5.2 0.00 0.00 0.00 36 1015.4
20260504183732 76 109 0.9 3.5 0.00 0.00 0.00 37 1015.5
20260504183530 76 109 0.9 3.5 0.00 0.00 0.00 36 1015.4
20260504183330 76 107 0.9 3.5 0.00 0.00 0.00 36 1015.5
20260504183129 76 110 0.9 3.5 0.00 0.00 0.00 38 1015.5
20260504182931 75 88 0.9 2.6 0.00 0.00 0.00 38 1015.5
20260504182530 75 87 1.7 5.2 0.00 0.00 0.00 37 1015.5
20260504182130 75 146 1.7 5.2 0.00 0.00 0.00 38 1015.8
20260504181931 75 166 0.9 5.2 0.00 0.00 0.00 36 1015.8
20260504181729 75 98 0.9 3.5 0.00 0.00 0.00 39 1015.9
20260504180927 74 40 1.7 4.3 0.00 0.00 0.00 38 1015.9
20260504175723 74 44 0.9 2.6 0.00 0.00 0.00 38 1015.8
20260504175519 74 30 1.7 2.6 0.00 0.00 0.00 40 1015.9
20260504175319 74 342 1.7 3.5 0.00 0.00 0.00 39 1015.9
20260504175119 74 309 0.9 3.5 0.00 0.00 0.00 38 1015.9
20260504174920 74 38 0.9 3.5 0.00 0.00 0.00 38 1015.9
20260504174719 74 299 0.9 3.5 0.00 0.00 0.00 39 1016.1
20260504174319 74 147 0.9 2.6 0.00 0.00 0.00 39 1015.9
20260504174120 74 146 1.7 2.6 0.00 0.00 0.00 38 1015.9
20260504173921 74 153 1.7 4.3 0.00 0.00 0.00 39 1016.1
20260504173721 74 236 1.7 4.3 0.00 0.00 0.00 39 1016.1
20260504173519 74 236 1.7 4.3 0.00 0.00 0.00 38 1016.1
20260504173320 74 322 1.7 4.3 0.00 0.00 0.00 39 1016.1
20260504173120 74 343 1.7 4.3 0.00 0.00 0.00 39 1016.1
20260504172920 74 14 1.7 3.5 0.00 0.00 0.00 40 1016.1
20260504172720 73 98 1.7 3.5 0.00 0.00 0.00 40 1016.2
20260504172518 73 202 1.7 4.3 0.00 0.00 0.00 40 1016.2
20260504172319 73 45 0.9 4.3 0.00 0.00 0.00 41 1016.2
20260504172119 73 53 0.9 4.3 0.00 0.00 0.00 40 1016.2
20260504171718 73 349 1.7 4.3 0.00 0.00 0.00 40 1016.2
20260504171315 73 167 1.7 4.3 0.00 0.00 0.00 37 1016.3
20260504170916 73 237 0.9 4.3 0.00 0.00 0.00 40 1016.4
20260504170716 73 5 0.9 4.3 0.00 0.00 0.00 39 1016.5
20260504170516 73 0 0.9 4.3 0.00 0.00 0.00 41 1016.6
20260504170315 73 5 1.7 4.3 0.00 0.00 0.00 42 1016.6
20260504170113 73 0 1.7 4.3 0.00 0.00 0.00 41 1016.6